FW3192 Weather Reports


Display with metric or nautical units.
time (UTC)temp
F
wind
direction
speed
MPH
gust
MPH
rain 1hr
in
rain 24hr
in
rain mn
in
humidity
%
barometer
mb
20260901060043 64 251 12.0 17.0 0.00 0.00 0.00 74 1014.9
20260901054528 66 247 10.0 16.0 0.00 0.00 0.00 70 1014.7
20260901053027 69 265 9.0 22.0 0.00 0.00 0.00 61 1014.1
20260901051535 68 275 6.0 10.0 0.00 0.00 0.00 64 1013.9
20260901050025 69 298 7.0 11.0 0.00 0.00 0.00 63 1013.8
20260901044527 69 322 5.0 15.0 0.00 0.00 0.00 65 1013.7
20260901043025 70 296 9.0 15.0 0.00 0.00 0.00 62 1013.9
20260901041544 70 310 10.0 17.0 0.00 0.00 0.00 61 1013.9
20260901040020 70 303 11.0 17.0 0.00 0.00 0.00 59 1014.0
20260901034503 69 325 10.0 18.0 0.00 0.00 0.00 61 1014.2
20260901033101 69 325 13.0 19.0 0.00 0.00 0.00 61 1014.2
20260901031602 68 315 14.0 23.0 0.00 0.00 0.00 60 1014.6
20260901030057 69 308 14.0 25.0 0.00 0.00 0.00 61 1015.0
20260901024553 69 315 16.0 24.0 0.00 0.00 0.00 60 1015.0
20260901023049 68 339 14.0 20.0 0.00 0.00 0.00 63 1015.2
20260901021545 66 325 11.0 17.0 0.00 0.00 0.00 66 1015.8
20260901020042 64 323 10.0 15.0 0.00 0.00 0.00 66 1016.2
20260901014540 64 337 12.0 19.0 0.00 0.00 0.00 66 1015.9
20260901013026 64 329 14.0 20.0 0.00 0.00 0.00 64 1015.9
20260901011528 64 1 10.0 16.0 0.00 0.00 0.00 66 1016.5
20260901010021 63 334 10.0 14.0 0.00 0.00 0.00 66 1016.7
20260901004521 63 342 10.0 16.0 0.00 0.00 0.00 68 1016.8
20260901003022 63 329 10.0 18.0 0.00 0.00 0.00 67 1016.8
20260901001517 64 312 10.0 20.0 0.00 0.00 0.00 65 1017.1
20260901000017 63 323 11.0 16.0 0.00 0.00 0.00 66 1017.2
20260831234615 62 350 7.0 12.0 0.00 0.00 0.00 73 1017.4
20260831233103 59 7 6.0 9.0 0.00 0.00 0.00 76 1017.6
20260831231547 57 35 5.0 9.0 0.00 0.00 0.00 76 1017.6
20260831230045 57 16 7.0 11.0 0.00 0.00 0.00 75 1017.5
20260831224541 56 28 8.0 11.0 0.00 0.00 0.00 75 1017.6
20260831223037 56 28 8.0 12.0 0.00 0.00 0.00 75 1017.8
20260831221537 55 14 7.0 11.0 0.00 0.00 0.00 76 1018.0
20260831220033 54 36 6.0 10.0 0.00 0.01 0.00 78 1018.2
20260831214521 52 46 5.0 7.0 0.00 0.01 0.00 81 1018.1
20260831213015 51 48 4.0 6.0 0.00 0.01 0.00 82 1018.1
20260831211558 50 40 5.0 8.0 0.00 0.01 0.00 83 1018.1
20260831210057 50 41 5.0 7.0 0.00 0.01 0.00 82 1018.1
20260831204607 50 47 5.0 6.0 0.00 0.01 0.00 82 1018.1
20260831203055 51 31 5.0 7.0 0.00 0.01 0.00 80 1018.2
20260831201554 51 59 5.0 8.0 0.00 0.01 0.00 80 1018.3
20260831200055 50 43 5.0 7.0 0.00 0.01 0.00 82 1018.3
20260831194557 50 50 5.0 7.0 0.00 0.01 0.00 82 1018.4
20260831193050 50 36 7.0 10.0 0.00 0.01 0.00 81 1018.4
20260831191540 50 42 6.0 12.0 0.00 0.01 0.00 81 1018.4
20260831190033 50 24 8.0 14.0 0.00 0.01 0.00 81 1018.5
20260831184522 50 50 6.0 8.0 0.00 0.01 0.00 82 1018.6
20260831183020 49 46 4.0 7.0 0.00 0.01 0.00 83 1018.8
20260831181518 49 56 5.0 7.0 0.00 0.01 0.00 82 1019.0
20260831180022 49 43 6.0 9.0 0.00 0.01 0.00 82 1019.2
20260831174520 49 33 7.0 10.0 0.00 0.01 0.00 83 1019.2
20260831173014 49 33 6.0 9.0 0.00 0.01 0.00 84 1019.4
20260831171551 49 48 6.0 8.0 0.00 0.01 0.00 83 1019.6
20260831170054 49 51 6.0 8.0 0.00 0.01 0.00 83 1019.8
20260831164530 49 36 6.0 10.0 0.00 0.01 0.00 82 1020.1
20260831163028 50 40 7.0 10.0 0.00 0.01 0.00 82 1020.2
20260831161507 49 47 7.0 10.0 0.00 0.01 0.00 82 1020.5
20260831160005 49 45 6.0 9.0 0.00 0.01 0.00 83 1020.7
20260831154553 50 44 6.0 9.0 0.00 0.01 0.00 82 1021.1
20260831153143 50 33 6.0 9.0 0.00 0.01 0.00 81 1021.3
20260831151541 50 40 6.0 9.0 0.00 0.01 0.00 81 1021.5
20260831150050 50 36 7.0 10.0 0.00 0.01 0.00 81 1021.5
20260831144536 50 36 6.0 9.0 0.00 0.01 0.00 82 1021.6
20260831143039 50 21 7.0 9.0 0.00 0.01 0.00 82 1021.9
20260831141530 50 41 5.0 7.0 0.00 0.01 0.00 83 1022.1
20260831140030 50 37 5.0 7.0 0.00 0.01 0.00 84 1022.3
20260831134520 50 36 3.0 5.0 0.00 0.01 0.00 85 1022.5
20260831133007 50 45 2.0 5.0 0.00 0.01 0.00 84 1022.8
20260831131504 50 33 4.0 7.0 0.00 0.01 0.00 83 1023.1
20260831130001 51 36 2.0 7.0 0.00 0.01 0.00 83 1023.2
20260831124602 51 38 5.0 7.0 0.00 0.01 0.00 82 1023.3
20260831123055 52 45 4.0 8.0 0.00 0.01 0.00 80 1023.4
20260831121557 53 28 7.0 11.0 0.00 0.01 0.00 79 1023.4
20260831120050 53 23 6.0 8.0 0.00 0.01 0.00 80 1023.4
20260831114552 53 31 4.0 6.0 0.00 0.01 0.00 80 1023.5
20260831113030 54 35 4.0 6.0 0.00 0.01 0.00 79 1023.5
20260831111528 55 28 5.0 8.0 0.00 0.01 0.00 79 1023.5
20260831110029 55 19 3.0 5.0 0.00 0.01 0.01 80 1023.6
20260831104535 55 16 3.0 4.0 0.00 0.01 0.01 79 1023.6
20260831103025 56 40 3.0 5.0 0.00 0.01 0.01 78 1023.5
20260831101534 57 45 3.0 4.0 0.00 0.01 0.01 77 1023.7
20260831100022 58 45 3.0 5.0 0.00 0.01 0.01 76 1023.7
20260831094522 59 37 3.0 5.0 0.00 0.01 0.01 75 1023.8
20260831093009 60 68 4.0 6.0 0.00 0.01 0.01 74 1023.8
20260831091514 60 15 2.0 3.0 0.00 0.01 0.01 75 1023.8
20260831090008 61 194 0.0 0.0 0.00 0.01 0.01 78 1023.8
20260831084512 62 194 1.0 2.0 0.00 0.01 0.01 78 1023.8
20260831083007 62 223 0.0 3.0 0.00 0.01 0.01 76 1023.8
20260831081507 63 228 2.0 4.0 0.00 0.01 0.01 76 1023.9
20260831080006 65 235 1.0 3.0 0.00 0.01 0.01 73 1023.9
20260831074506 65 238 2.0 5.0 0.00 0.01 0.01 72 1023.7
20260831073051 65 234 1.0 6.0 0.00 0.01 0.01 73 1023.6
20260831071551 66 238 0.0 6.0 0.00 0.01 0.01 71 1023.8
20260831070049 66 210 2.0 7.0 0.00 0.01 0.01 71 1023.8
20260831064553 69 282 4.0 7.0 0.00 0.01 0.01 61 1023.9
20260831063046 67 258 0.0 6.0 0.00 0.01 0.01 67 1024.1
20260831061545 67 242 2.0 7.0 0.00 0.01 0.01 66 1024.3